Time,TemperatureF,DewpointF,PressureIn,WindDirection,WindDirectionDegrees,WindSpeedMPH,WindSpeedGustMPH,Humidity,HourlyPrecipIn,Conditions,Clouds,dailyrainin,SoftwareType,DateUTC
2013-10-05 00:00:00,59.6,59.0,29.85,SW,221,0.0,0.0,98,0.00,,---,0.00,VWS V13.01,2013-10-05 04:00:00,
2013-10-05 00:01:00,59.6,59.0,29.85,SW,221,0.0,0.0,98,0.00,,---,0.00,VWS V13.01,2013-10-05 04:01:00,
2013-10-05 00:02:00,59.7,59.1,29.85,SW,221,0.0,0.0,98,0.00,,---,0.00,VWS V13.01,2013-10-05 04:02:00,
2013-10-05 00:05:00,59.7,59.1,29.85,SW,221,0.0,0.0,98,0.00,,---,0.00,VWS V13.01,2013-10-05 04:05:00,
2013-10-05 00:06:00,59.7,59.1,29.85,SW,221,0.0,0.0,98,0.00,,---,0.00,VWS V13.01,2013-10-05 04:06:00,
2013-10-05 00:11:00,59.8,59.2,29.86,SW,221,0.0,0.0,98,0.00,,---,0.00,VWS V13.01,2013-10-05 04:11:00,
2013-10-05 00:16:00,59.8,59.2,29.86,SW,221,0.0,0.0,98,0.00,,---,0.00,VWS V13.01,2013-10-05 04:16:00,
2013-10-05 00:21:00,59.9,59.3,29.86,SW,221,0.0,0.0,98,0.00,,---,0.00,VWS V13.01,2013-10-05 04:21:00,
2013-10-05 00:26:00,60.2,59.6,29.86,SW,221,0.0,0.0,98,0.00,,---,0.00,VWS V13.01,2013-10-05 04:26:00,
2013-10-05 00:31:00,60.3,59.7,29.85,SW,221,0.0,0.0,98,0.00,,---,0.00,VWS V13.01,2013-10-05 04:31:00,
2013-10-05 00:36:00,60.3,59.7,29.85,SW,221,0.0,0.0,98,0.00,,---,0.00,VWS V13.01,2013-10-05 04:36:00,
2013-10-05 00:41:00,60.2,59.6,29.85,SW,221,0.0,0.0,98,0.00,,---,0.00,VWS V13.01,2013-10-05 04:41:00,
2013-10-05 00:46:00,60.1,59.5,29.85,SW,221,0.0,0.0,98,0.00,,---,0.00,VWS V13.01,2013-10-05 04:46:00,
2013-10-05 00:52:00,60.1,59.5,29.84,SW,221,0.0,0.0,98,0.00,,---,0.00,VWS V13.01,2013-10-05 04:52:00,
2013-10-05 00:57:00,60.1,59.5,29.84,SW,221,0.0,0.0,98,0.00,,---,0.00,VWS V13.01,2013-10-05 04:57:00,
2013-10-05 01:02:00,60.1,59.5,29.84,SW,221,0.0,0.0,98,0.00,,---,0.00,VWS V13.01,2013-10-05 05:02:00,
2013-10-05 01:07:00,60.1,59.5,29.84,SW,221,0.0,0.0,98,0.00,,---,0.00,VWS V13.01,2013-10-05 05:07:00,
2013-10-05 01:12:00,60.1,59.5,29.84,SW,221,0.0,0.0,98,0.00,,---,0.00,VWS V13.01,2013-10-05 05:12:00,
2013-10-05 01:17:00,60.0,59.4,29.85,SW,221,0.0,0.0,98,0.00,,---,0.00,VWS V13.01,2013-10-05 05:17:00,
2013-10-05 01:22:00,59.9,59.3,29.85,SW,221,0.0,0.0,98,0.00,,---,0.00,VWS V13.01,2013-10-05 05:22:00,
2013-10-05 01:27:00,59.9,59.3,29.84,SW,221,0.0,0.0,98,0.00,,---,0.00,VWS V13.01,2013-10-05 05:27:00,
2013-10-05 01:32:00,59.9,59.3,29.84,SW,221,0.0,0.0,98,0.00,,---,0.00,VWS V13.01,2013-10-05 05:32:00,
2013-10-05 01:37:00,59.7,59.1,29.84,SW,221,0.0,0.0,98,0.00,,---,0.00,VWS V13.01,2013-10-05 05:37:00,
2013-10-05 01:42:00,59.5,58.9,29.84,SW,221,0.0,0.0,98,0.00,,---,0.00,VWS V13.01,2013-10-05 05:42:00,
2013-10-05 01:48:00,59.3,58.7,29.84,SW,221,0.0,0.0,98,0.00,,---,0.00,VWS V13.01,2013-10-05 05:48:00,
2013-10-05 01:53:00,59.0,58.4,29.84,SW,221,0.0,0.0,98,0.00,,---,0.00,VWS V13.01,2013-10-05 05:53:00,
2013-10-05 01:58:00,59.0,58.4,29.84,SW,221,0.0,0.0,98,0.00,,---,0.00,VWS V13.01,2013-10-05 05:58:00,
2013-10-05 02:03:00,59.6,59.0,29.84,SW,221,0.0,0.0,98,0.00,,---,0.00,VWS V13.01,2013-10-05 06:03:00,
2013-10-05 02:08:00,59.9,59.6,29.84,SW,221,0.0,0.0,99,0.00,,---,0.00,VWS V13.01,2013-10-05 06:08:00,
2013-10-05 02:13:00,60.0,59.7,29.84,SW,221,0.0,0.0,99,0.00,,---,0.00,VWS V13.01,2013-10-05 06:13:00,
2013-10-05 02:18:00,60.1,59.8,29.85,SW,221,0.0,0.0,99,0.00,,---,0.00,VWS V13.01,2013-10-05 06:18:00,
2013-10-05 02:23:00,60.2,59.9,29.85,SW,221,0.0,0.0,99,0.00,,---,0.00,VWS V13.01,2013-10-05 06:23:00,
2013-10-05 02:28:00,60.2,59.9,29.84,SW,221,0.0,0.0,99,0.00,,---,0.00,VWS V13.01,2013-10-05 06:28:00,
2013-10-05 02:33:00,60.2,59.9,29.85,SW,221,0.0,0.0,99,0.00,,---,0.00,VWS V13.01,2013-10-05 06:33:00,
2013-10-05 02:38:00,60.3,60.0,29.84,SW,221,0.0,1.0,99,0.00,,---,0.00,VWS V13.01,2013-10-05 06:38:00,
2013-10-05 02:43:00,60.3,60.0,29.84,SW,221,0.0,1.0,99,0.00,,---,0.00,VWS V13.01,2013-10-05 06:43:00,
2013-10-05 02:49:00,60.4,60.1,29.84,SW,221,0.0,2.0,99,0.00,,---,0.00,VWS V13.01,2013-10-05 06:49:00,
2013-10-05 02:54:00,60.4,60.1,29.84,SW,221,0.0,2.0,99,0.00,,---,0.00,VWS V13.01,2013-10-05 06:54:00,
2013-10-05 02:59:00,60.4,60.1,29.84,SW,221,0.0,2.0,99,0.00,,---,0.00,VWS V13.01,2013-10-05 06:59:00,
2013-10-05 03:04:00,60.3,60.0,29.84,SW,221,0.0,0.0,99,0.00,,---,0.00,VWS V13.01,2013-10-05 07:04:00,
2013-10-05 03:09:00,60.3,60.0,29.83,SW,221,0.0,0.0,99,0.00,,---,0.00,VWS V13.01,2013-10-05 07:09:00,
2013-10-05 03:14:00,60.3,60.0,29.84,SW,221,0.0,0.0,99,0.00,,---,0.00,VWS V13.01,2013-10-05 07:14:00,
2013-10-05 03:19:00,60.2,59.9,29.84,SW,221,1.0,1.0,99,0.00,,---,0.00,VWS V13.01,2013-10-05 07:19:00,
2013-10-05 03:24:00,60.2,59.9,29.84,SW,221,1.0,2.0,99,0.00,,---,0.00,VWS V13.01,2013-10-05 07:24:00,
2013-10-05 03:29:00,59.9,59.6,29.84,SW,221,0.0,2.0,99,0.00,,---,0.00,VWS V13.01,2013-10-05 07:29:00,
2013-10-05 03:34:00,59.9,59.6,29.84,SW,221,0.0,0.0,99,0.00,,---,0.00,VWS V13.01,2013-10-05 07:34:00,
2013-10-05 03:39:00,59.9,59.6,29.84,SW,221,0.0,0.0,99,0.00,,---,0.00,VWS V13.01,2013-10-05 07:39:00,
2013-10-05 03:44:00,59.9,59.6,29.84,SW,221,0.0,0.0,99,0.00,,---,0.00,VWS V13.01,2013-10-05 07:44:00,
2013-10-05 03:49:00,60.0,59.7,29.84,SW,221,0.0,1.0,99,0.00,,---,0.00,VWS V13.01,2013-10-05 07:49:00,
2013-10-05 03:55:00,60.0,59.7,29.84,SW,221,0.0,1.0,99,0.00,,---,0.00,VWS V13.01,2013-10-05 07:55:00,
2013-10-05 04:00:00,60.0,59.7,29.84,SW,221,0.0,0.0,99,0.00,,---,0.00,VWS V13.01,2013-10-05 08:00:00,
2013-10-05 04:05:00,59.9,59.6,29.84,SW,221,0.0,1.0,99,0.00,,---,0.00,VWS V13.01,2013-10-05 08:05:00,
2013-10-05 04:10:00,59.9,59.6,29.84,SW,221,0.0,1.0,99,0.00,,---,0.00,VWS V13.01,2013-10-05 08:10:00,
2013-10-05 04:15:00,60.0,59.7,29.83,SW,221,0.0,2.0,99,0.00,,---,0.00,VWS V13.01,2013-10-05 08:15:00,
2013-10-05 04:20:00,60.1,59.8,29.83,SW,221,2.0,2.0,99,0.00,,---,0.00,VWS V13.01,2013-10-05 08:20:00,
2013-10-05 04:25:00,60.1,59.8,29.84,SW,221,0.0,3.0,99,0.00,,---,0.00,VWS V13.01,2013-10-05 08:25:00,
2013-10-05 04:30:00,60.1,59.8,29.84,SW,221,0.0,0.0,99,0.00,,---,0.00,VWS V13.01,2013-10-05 08:30:00,
2013-10-05 04:35:00,60.1,59.8,29.84,SW,221,0.0,0.0,99,0.00,,---,0.00,VWS V13.01,2013-10-05 08:35:00,
2013-10-05 04:40:00,60.0,59.7,29.84,SW,221,0.0,0.0,99,0.00,,---,0.00,VWS V13.01,2013-10-05 08:40:00,
2013-10-05 04:45:00,60.1,59.8,29.83,SW,221,0.0,1.0,99,0.00,,---,0.00,VWS V13.01,2013-10-05 08:45:00,
2013-10-05 04:50:00,60.1,59.8,29.83,SW,221,0.0,1.0,99,0.00,,---,0.00,VWS V13.01,2013-10-05 08:50:00,
2013-10-05 04:55:00,60.1,59.8,29.84,SW,221,0.0,2.0,99,0.00,,---,0.00,VWS V13.01,2013-10-05 08:55:00,
2013-10-05 05:00:00,59.9,59.6,29.84,SW,221,0.0,0.0,99,0.00,,---,0.00,VWS V13.01,2013-10-05 09:00:00,
2013-10-05 05:05:00,59.7,59.4,29.84,SW,221,0.0,1.0,99,0.00,,---,0.00,VWS V13.01,2013-10-05 09:05:00,
2013-10-05 05:11:00,59.8,59.5,29.84,SW,221,0.0,1.0,99,0.00,,---,0.00,VWS V13.01,2013-10-05 09:11:00,
2013-10-05 05:16:00,59.9,59.6,29.85,SW,221,0.0,1.0,99,0.00,,---,0.00,VWS V13.01,2013-10-05 09:16:00,
2013-10-05 05:21:00,59.9,59.6,29.85,SW,221,0.0,1.0,99,0.00,,---,0.00,VWS V13.01,2013-10-05 09:21:00,
2013-10-05 05:26:00,59.8,59.5,29.84,SW,221,0.0,1.0,99,0.00,,---,0.00,VWS V13.01,2013-10-05 09:26:00,
2013-10-05 05:31:00,59.4,59.1,29.84,SW,221,0.0,0.0,99,0.00,,---,0.00,VWS V13.01,2013-10-05 09:31:00,
2013-10-05 05:36:00,59.0,58.7,29.85,SW,221,0.0,1.0,99,0.00,,---,0.00,VWS V13.01,2013-10-05 09:36:00,
2013-10-05 05:41:00,58.9,58.6,29.85,SW,221,0.0,1.0,99,0.00,,---,0.00,VWS V13.01,2013-10-05 09:41:00,
2013-10-05 05:46:00,58.8,58.5,29.85,SW,221,0.0,1.0,99,0.00,,---,0.00,VWS V13.01,2013-10-05 09:46:00,
2013-10-05 05:51:00,58.6,58.3,29.85,SW,221,0.0,1.0,99,0.00,,---,0.00,VWS V13.01,2013-10-05 09:51:00,
2013-10-05 05:56:00,58.5,58.2,29.85,SW,221,0.0,1.0,99,0.00,,---,0.00,VWS V13.01,2013-10-05 09:56:00,
2013-10-05 06:01:00,58.6,58.3,29.86,SW,221,0.0,0.0,99,0.00,,---,0.00,VWS V13.01,2013-10-05 10:01:00,
2013-10-05 06:06:00,58.7,58.4,29.86,SW,221,0.0,0.0,99,0.00,,---,0.00,VWS V13.01,2013-10-05 10:06:00,
2013-10-05 06:11:00,58.8,58.5,29.85,SW,221,0.0,0.0,99,0.00,,---,0.00,VWS V13.01,2013-10-05 10:11:00,
2013-10-05 06:16:00,58.9,58.6,29.85,SW,221,0.0,0.0,99,0.00,,---,0.00,VWS V13.01,2013-10-05 10:16:00,
2013-10-05 06:21:00,58.8,58.5,29.85,SW,221,0.0,0.0,99,0.00,,---,0.00,VWS V13.01,2013-10-05 10:21:00,
2013-10-05 06:26:00,58.8,58.5,29.85,SW,221,0.0,0.0,99,0.00,,---,0.00,VWS V13.01,2013-10-05 10:26:00,
2013-10-05 06:31:00,58.7,58.4,29.85,SW,221,0.0,0.0,99,0.00,,---,0.00,VWS V13.01,2013-10-05 10:31:00,
2013-10-05 06:36:00,58.7,58.4,29.85,SW,221,0.0,0.0,99,0.00,,---,0.00,VWS V13.01,2013-10-05 10:36:00,
2013-10-05 06:42:00,58.8,58.5,29.85,SW,221,0.0,1.0,99,0.00,,---,0.00,VWS V13.01,2013-10-05 10:42:00,
2013-10-05 06:47:00,59.0,58.7,29.85,SW,221,0.0,1.0,99,0.00,,---,0.00,VWS V13.01,2013-10-05 10:47:00,
2013-10-05 06:52:00,59.0,58.7,29.86,SW,221,0.0,1.0,99,0.00,,---,0.00,VWS V13.01,2013-10-05 10:52:00,
2013-10-05 06:57:00,59.0,58.7,29.86,SW,221,0.0,1.0,99,0.00,,---,0.00,VWS V13.01,2013-10-05 10:57:00,
2013-10-05 07:02:00,59.0,58.7,29.86,SW,221,0.0,0.0,99,0.00,,---,0.00,VWS V13.01,2013-10-05 11:02:00,
2013-10-05 07:07:00,59.3,59.0,29.86,SW,221,0.0,0.0,99,0.00,,---,0.00,VWS V13.01,2013-10-05 11:07:00,
2013-10-05 07:12:00,59.4,59.4,29.86,SW,221,0.0,0.0,100,0.00,,---,0.00,VWS V13.01,2013-10-05 11:12:00,
2013-10-05 07:17:00,59.2,58.9,29.86,SW,221,0.0,0.0,99,0.00,,---,0.00,VWS V13.01,2013-10-05 11:17:00,
2013-10-05 07:22:00,59.2,58.9,29.86,SW,221,0.0,0.0,99,0.00,,---,0.00,VWS V13.01,2013-10-05 11:22:00,
2013-10-05 07:27:00,59.3,59.0,29.86,SW,221,0.0,0.0,99,0.00,,---,0.00,VWS V13.01,2013-10-05 11:27:00,
2013-10-05 07:32:00,59.4,59.4,29.86,SW,221,0.0,0.0,100,0.00,,---,0.00,VWS V13.01,2013-10-05 11:32:00,
2013-10-05 07:38:00,59.5,59.5,29.86,SW,221,0.0,0.0,100,0.00,,---,0.00,VWS V13.01,2013-10-05 11:38:00,
2013-10-05 07:43:00,59.6,59.6,29.86,SW,221,0.0,0.0,100,0.00,,---,0.00,VWS V13.01,2013-10-05 11:43:00,
2013-10-05 07:48:00,59.6,59.3,29.86,SW,221,0.0,1.0,99,0.00,,---,0.00,VWS V13.01,2013-10-05 11:48:00,
2013-10-05 07:53:00,59.4,59.4,29.86,SW,221,0.0,1.0,100,0.00,,---,0.00,VWS V13.01,2013-10-05 11:53:00,
2013-10-05 07:58:00,59.3,59.0,29.86,SW,221,0.0,1.0,99,0.00,,---,0.00,VWS V13.01,2013-10-05 11:58:00,
2013-10-05 08:03:00,59.4,59.1,29.86,SW,221,0.0,0.0,99,0.00,,---,0.00,VWS V13.01,2013-10-05 12:03:00,
2013-10-05 08:08:00,59.5,59.5,29.87,SW,221,0.0,0.0,100,0.00,,---,0.00,VWS V13.01,2013-10-05 12:08:00,
2013-10-05 08:13:00,59.7,59.7,29.87,SW,221,0.0,0.0,100,0.00,,---,0.00,VWS V13.01,2013-10-05 12:13:00,
2013-10-05 08:18:00,59.9,59.9,29.87,SW,221,0.0,0.0,100,0.00,,---,0.00,VWS V13.01,2013-10-05 12:18:00,
2013-10-05 08:23:00,60.2,60.2,29.86,SW,221,0.0,0.0,100,0.00,,---,0.00,VWS V13.01,2013-10-05 12:23:00,
2013-10-05 08:28:00,60.5,60.5,29.86,SW,221,0.0,0.0,100,0.00,,---,0.00,VWS V13.01,2013-10-05 12:28:00,
2013-10-05 08:33:00,60.8,60.8,29.86,SW,221,0.0,0.0,100,0.00,,---,0.00,VWS V13.01,2013-10-05 12:33:00,
2013-10-05 08:38:00,61.1,61.1,29.87,SW,221,0.0,0.0,100,0.00,,---,0.00,VWS V13.01,2013-10-05 12:38:00,
2013-10-05 08:43:00,61.1,61.1,29.87,SW,221,0.0,0.0,100,0.00,,---,0.00,VWS V13.01,2013-10-05 12:43:00,
2013-10-05 08:48:00,61.2,61.2,29.86,SW,221,0.0,0.0,100,0.00,,---,0.00,VWS V13.01,2013-10-05 12:48:00,
2013-10-05 08:54:00,61.5,61.5,29.86,SW,221,0.0,0.0,100,0.00,,---,0.00,VWS V13.01,2013-10-05 12:54:00,
2013-10-05 08:59:00,61.9,61.9,29.86,SW,221,0.0,0.0,100,0.00,,---,0.00,VWS V13.01,2013-10-05 12:59:00,
2013-10-05 09:04:00,62.2,62.2,29.86,SW,221,0.0,0.0,100,0.00,,---,0.00,VWS V13.01,2013-10-05 13:04:00,
2013-10-05 09:09:00,62.5,62.5,29.86,SW,221,0.0,2.0,100,0.00,,---,0.00,VWS V13.01,2013-10-05 13:09:00,
2013-10-05 09:14:00,62.6,62.6,29.87,SW,221,0.0,2.0,100,0.00,,---,0.00,VWS V13.01,2013-10-05 13:14:00,
2013-10-05 09:19:00,62.8,62.8,29.86,SW,221,0.0,2.0,100,0.00,,---,0.00,VWS V13.01,2013-10-05 13:19:00,
2013-10-05 09:24:00,63.0,63.0,29.86,SW,221,0.0,2.0,100,0.00,,---,0.00,VWS V13.01,2013-10-05 13:24:00,
2013-10-05 09:29:00,63.1,63.1,29.86,SW,221,0.0,2.0,100,0.00,,---,0.00,VWS V13.01,2013-10-05 13:29:00,
2013-10-05 09:34:00,63.1,63.1,29.86,SW,221,0.0,1.0,100,0.00,,---,0.00,VWS V13.01,2013-10-05 13:34:00,
2013-10-05 09:39:00,63.4,63.4,29.86,SW,221,0.0,1.0,100,0.00,,---,0.00,VWS V13.01,2013-10-05 13:39:00,
2013-10-05 09:44:00,63.7,63.7,29.85,SW,221,0.0,1.0,100,0.00,,---,0.00,VWS V13.01,2013-10-05 13:44:00,
2013-10-05 09:49:00,63.9,63.9,29.85,SW,221,0.0,1.0,100,0.00,,---,0.00,VWS V13.01,2013-10-05 13:49:00,
2013-10-05 09:54:00,64.0,64.0,29.85,SW,221,0.0,1.0,100,0.00,,---,0.00,VWS V13.01,2013-10-05 13:54:00,
2013-10-05 09:59:00,64.0,64.0,29.85,SW,221,0.0,1.0,100,0.00,,---,0.00,VWS V13.01,2013-10-05 13:59:00,
2013-10-05 10:04:00,64.2,64.2,29.85,SW,221,0.0,0.0,100,0.00,,---,0.00,VWS V13.01,2013-10-05 14:04:00,
2013-10-05 10:09:00,64.4,64.4,29.85,SW,221,0.0,1.0,100,0.00,,---,0.00,VWS V13.01,2013-10-05 14:09:00,
2013-10-05 10:15:00,64.9,64.9,29.85,SW,219,0.0,1.0,100,0.00,,---,0.00,VWS V13.01,2013-10-05 14:15:00,
2013-10-05 10:20:00,65.3,65.3,29.84,SW,219,0.0,1.0,100,0.00,,---,0.00,VWS V13.01,2013-10-05 14:20:00,
2013-10-05 10:25:00,65.9,65.9,29.85,SW,220,0.0,1.0,100,0.00,,---,0.00,VWS V13.01,2013-10-05 14:25:00,
2013-10-05 10:30:00,66.3,66.3,29.84,SW,219,0.0,0.0,100,0.00,,---,0.00,VWS V13.01,2013-10-05 14:30:00,
2013-10-05 10:35:00,66.9,66.9,29.84,SW,220,0.0,0.0,100,0.00,,---,0.00,VWS V13.01,2013-10-05 14:35:00,
2013-10-05 10:40:00,67.4,67.4,29.84,SW,219,0.0,1.0,100,0.00,,---,0.00,VWS V13.01,2013-10-05 14:40:00,
2013-10-05 10:45:00,67.4,67.4,29.84,West,265,7.0,9.0,100,0.00,,---,0.00,VWS V13.01,2013-10-05 14:45:00,
2013-10-05 10:50:00,67.8,67.8,29.84,West,267,5.0,9.0,100,0.00,,---,0.00,VWS V13.01,2013-10-05 14:50:00,
2013-10-05 10:55:00,68.0,67.7,29.84,West,274,3.0,9.0,99,0.00,,---,0.00,VWS V13.01,2013-10-05 14:55:00,
2013-10-05 11:00:00,68.2,67.3,29.83,West,275,5.0,6.0,97,0.00,,---,0.00,VWS V13.01,2013-10-05 15:00:00,
2013-10-05 11:05:00,68.6,66.8,29.83,West,275,0.0,7.0,94,0.00,,---,0.00,VWS V13.01,2013-10-05 15:05:00,
2013-10-05 11:10:00,69.0,66.9,29.83,West,272,5.0,8.0,93,0.00,,---,0.00,VWS V13.01,2013-10-05 15:10:00,
2013-10-05 11:15:00,69.3,66.9,29.83,West,273,5.0,8.0,92,0.00,,---,0.00,VWS V13.01,2013-10-05 15:15:00,
2013-10-05 11:20:00,69.9,67.2,29.83,West,273,5.0,8.0,91,0.00,,---,0.00,VWS V13.01,2013-10-05 15:20:00,
2013-10-05 11:26:00,70.2,67.1,29.83,West,273,0.0,8.0,90,0.00,,---,0.00,VWS V13.01,2013-10-05 15:26:00,
2013-10-05 11:31:00,70.5,67.1,29.83,West,273,4.0,4.0,89,0.00,,---,0.00,VWS V13.01,2013-10-05 15:31:00,
2013-10-05 11:36:00,70.9,67.2,29.82,West,272,1.0,5.0,88,0.00,,---,0.00,VWS V13.01,2013-10-05 15:36:00,
2013-10-05 11:41:00,71.5,67.8,29.82,West,272,2.0,5.0,88,0.00,,---,0.00,VWS V13.01,2013-10-05 15:41:00,
2013-10-05 11:46:00,71.9,67.5,29.82,West,263,0.0,8.0,86,0.00,,---,0.00,VWS V13.01,2013-10-05 15:46:00,
2013-10-05 11:51:00,72.1,68.3,29.83,West,263,0.0,8.0,88,0.00,,---,0.00,VWS V13.01,2013-10-05 15:51:00,
2013-10-05 11:56:00,72.7,68.6,29.82,West,261,0.0,8.0,87,0.00,,---,0.00,VWS V13.01,2013-10-05 15:56:00,
2013-10-05 12:01:00,73.5,68.4,29.82,SSE,168,0.0,6.0,84,0.00,,---,0.00,VWS V13.01,2013-10-05 16:01:00,
2013-10-05 12:06:00,73.7,68.2,29.82,ESE,121,0.0,6.0,83,0.00,,---,0.00,VWS V13.01,2013-10-05 16:06:00,
2013-10-05 12:11:00,74.1,68.6,29.81,ESE,121,0.0,6.0,83,0.00,,---,0.00,VWS V13.01,2013-10-05 16:11:00,
2013-10-05 12:17:00,74.4,67.8,29.81,SSW,194,0.0,9.0,80,0.00,,---,0.00,VWS V13.01,2013-10-05 16:17:00,
2013-10-05 12:22:00,75.0,68.4,29.81,SSW,194,0.0,9.0,80,0.00,,---,0.00,VWS V13.01,2013-10-05 16:22:00,
2013-10-05 12:27:00,75.8,68.8,29.81,SW,231,0.0,9.0,79,0.00,,---,0.00,VWS V13.01,2013-10-05 16:27:00,
2013-10-05 12:32:00,76.1,68.4,29.81,WNW,291,0.0,6.0,77,0.00,,---,0.00,VWS V13.01,2013-10-05 16:32:00,
2013-10-05 12:37:00,76.1,68.4,29.81,NW,311,1.0,6.0,77,0.00,,---,0.00,VWS V13.01,2013-10-05 16:37:00,
2013-10-05 12:42:00,75.8,68.8,29.80,West,265,0.0,8.0,79,0.00,,---,0.00,VWS V13.01,2013-10-05 16:42:00,
2013-10-05 12:47:00,75.9,68.6,29.80,West,275,0.0,8.0,78,0.00,,---,0.00,VWS V13.01,2013-10-05 16:47:00,
2013-10-05 12:52:00,75.9,68.6,29.80,West,277,0.0,9.0,78,0.00,,---,0.00,VWS V13.01,2013-10-05 16:52:00,
2013-10-05 12:57:00,75.8,67.7,29.80,West,271,6.0,10.0,76,0.00,,---,0.00,VWS V13.01,2013-10-05 16:57:00,
2013-10-05 13:02:00,76.2,68.8,29.80,West,281,4.0,9.0,78,0.00,,---,0.00,VWS V13.01,2013-10-05 17:02:00,
2013-10-05 13:07:00,76.7,67.8,29.79,West,278,6.0,9.0,74,0.00,,---,0.00,VWS V13.01,2013-10-05 17:07:00,
2013-10-05 13:13:00,76.9,68.0,29.79,SW,219,1.0,9.0,74,0.00,,---,0.00,VWS V13.01,2013-10-05 17:13:00,
2013-10-05 13:18:00,76.9,68.8,29.79,SW,220,0.0,9.0,76,0.00,,---,0.00,VWS V13.01,2013-10-05 17:18:00,
2013-10-05 13:23:00,77.3,68.4,29.78,SW,219,0.0,9.0,74,0.00,,---,0.00,VWS V13.01,2013-10-05 17:23:00,
2013-10-05 13:28:00,78.0,67.8,29.78,South,187,0.0,11.0,71,0.00,,---,0.00,VWS V13.01,2013-10-05 17:28:00,
2013-10-05 13:33:00,77.6,67.9,29.79,SSE,159,2.0,6.0,72,0.00,,---,0.00,VWS V13.01,2013-10-05 17:33:00,
2013-10-05 13:38:00,77.4,68.5,29.78,South,178,3.0,6.0,74,0.00,,---,0.00,VWS V13.01,2013-10-05 17:38:00,
2013-10-05 13:43:00,77.2,67.9,29.78,West,269,4.0,10.0,73,0.00,,---,0.00,VWS V13.01,2013-10-05 17:43:00,
2013-10-05 13:48:00,77.5,69.0,29.78,West,267,2.0,10.0,75,0.00,,---,0.00,VWS V13.01,2013-10-05 17:48:00,
2013-10-05 13:53:00,78.7,68.5,29.77,West,268,5.0,10.0,71,0.00,,---,0.00,VWS V13.01,2013-10-05 17:53:00,
2013-10-05 13:58:00,78.3,68.1,29.77,West,271,0.0,11.0,71,0.00,,---,0.00,VWS V13.01,2013-10-05 17:58:00,
2013-10-05 14:03:00,77.4,68.1,29.77,West,267,3.0,12.0,73,0.00,,---,0.00,VWS V13.01,2013-10-05 18:03:00,
2013-10-05 14:08:00,76.6,68.1,29.77,West,264,7.0,13.0,75,0.00,,---,0.00,VWS V13.01,2013-10-05 18:08:00,
2013-10-05 14:13:00,77.1,68.6,29.77,West,271,2.0,13.0,75,0.00,,---,0.00,VWS V13.01,2013-10-05 18:13:00,
2013-10-05 14:18:00,78.4,69.0,29.77,SW,232,7.0,14.0,73,0.00,,---,0.00,VWS V13.01,2013-10-05 18:18:00,
2013-10-05 14:23:00,78.7,69.3,29.77,West,259,8.0,14.0,73,0.00,,---,0.00,VWS V13.01,2013-10-05 18:23:00,
2013-10-05 14:29:00,78.7,68.9,29.77,West,273,4.0,14.0,72,0.00,,---,0.00,VWS V13.01,2013-10-05 18:29:00,
2013-10-05 14:34:00,79.3,69.1,29.76,West,272,4.0,9.0,71,0.00,,---,0.00,VWS V13.01,2013-10-05 18:34:00,
2013-10-05 14:39:00,79.8,69.6,29.77,West,270,5.0,13.0,71,0.00,,---,0.00,VWS V13.01,2013-10-05 18:39:00,
2013-10-05 14:44:00,79.0,68.4,29.77,SW,230,5.0,15.0,70,0.00,,---,0.00,VWS V13.01,2013-10-05 18:44:00,
2013-10-05 14:49:00,78.5,69.1,29.77,WSW,240,4.0,15.0,73,0.00,,---,0.00,VWS V13.01,2013-10-05 18:49:00,
2013-10-05 14:54:00,78.7,68.9,29.76,WNW,289,5.0,15.0,72,0.00,,---,0.00,VWS V13.01,2013-10-05 18:54:00,
2013-10-05 14:59:00,78.7,68.9,29.76,West,265,0.0,15.0,72,0.00,,---,0.00,VWS V13.01,2013-10-05 18:59:00,
2013-10-05 15:04:00,79.2,69.0,29.75,West,265,6.0,7.0,71,0.00,,---,0.00,VWS V13.01,2013-10-05 19:04:00,
2013-10-05 15:09:00,79.0,68.8,29.75,WNW,298,0.0,10.0,71,0.00,,---,0.00,VWS V13.01,2013-10-05 19:09:00,
2013-10-05 15:14:00,79.0,69.2,29.75,South,170,0.0,10.0,72,0.00,,---,0.00,VWS V13.01,2013-10-05 19:14:00,
2013-10-05 15:20:00,78.9,69.1,29.75,WSW,241,0.0,10.0,72,0.00,,---,0.00,VWS V13.01,2013-10-05 19:20:00,
2013-10-05 15:25:00,78.7,68.5,29.74,WSW,241,0.0,10.0,71,0.00,,---,0.00,VWS V13.01,2013-10-05 19:25:00,
2013-10-05 15:30:00,78.7,69.3,29.74,WSW,241,0.0,10.0,73,0.00,,---,0.00,VWS V13.01,2013-10-05 19:30:00,
2013-10-05 15:35:00,78.4,69.4,29.74,WSW,246,12.0,15.0,74,0.00,,---,0.00,VWS V13.01,2013-10-05 19:35:00,
2013-10-05 15:40:00,78.2,69.6,29.74,WSW,249,1.0,15.0,75,0.00,,---,0.00,VWS V13.01,2013-10-05 19:40:00,
2013-10-05 15:45:00,78.4,69.8,29.74,WSW,249,0.0,15.0,75,0.00,,---,0.00,VWS V13.01,2013-10-05 19:45:00,
2013-10-05 15:50:00,78.7,68.9,29.74,WSW,250,0.0,15.0,72,0.00,,---,0.00,VWS V13.01,2013-10-05 19:50:00,
2013-10-05 15:55:00,78.8,69.0,29.74,SW,223,2.0,15.0,72,0.00,,---,0.00,VWS V13.01,2013-10-05 19:55:00,
2013-10-05 16:00:00,79.1,69.3,29.74,WNW,286,0.0,0.0,72,0.00,,---,0.00,VWS V13.01,2013-10-05 20:00:00,
2013-10-05 16:05:00,79.4,68.8,29.74,West,275,4.0,8.0,70,0.00,,---,0.00,VWS V13.01,2013-10-05 20:05:00,
2013-10-05 16:10:00,79.2,69.0,29.74,SW,236,4.0,8.0,71,0.00,,---,0.00,VWS V13.01,2013-10-05 20:10:00,
2013-10-05 16:15:00,78.7,68.9,29.74,SSW,206,8.0,15.0,72,0.00,,---,0.00,VWS V13.01,2013-10-05 20:15:00,
2013-10-05 16:20:00,78.2,69.2,29.74,SW,217,5.0,15.0,74,0.00,,---,0.00,VWS V13.01,2013-10-05 20:20:00,
2013-10-05 16:26:00,77.9,68.9,29.74,SW,217,1.0,15.0,74,0.00,,---,0.00,VWS V13.01,2013-10-05 20:26:00,
2013-10-05 16:31:00,77.7,69.2,29.74,South,186,1.0,5.0,75,0.00,,---,0.00,VWS V13.01,2013-10-05 20:31:00,
2013-10-05 16:36:00,77.5,69.0,29.74,WSW,254,2.0,7.0,75,0.00,,---,0.00,VWS V13.01,2013-10-05 20:36:00,
2013-10-05 16:41:00,77.3,68.8,29.74,West,265,0.0,7.0,75,0.00,,---,0.00,VWS V13.01,2013-10-05 20:41:00,
2013-10-05 16:46:00,77.1,69.0,29.74,West,279,0.0,7.0,76,0.00,,---,0.00,VWS V13.01,2013-10-05 20:46:00,
2013-10-05 16:51:00,77.0,69.2,29.74,West,279,0.0,7.0,77,0.00,,---,0.00,VWS V13.01,2013-10-05 20:51:00,
2013-10-05 16:56:00,77.0,68.9,29.73,West,279,0.0,7.0,76,0.00,,---,0.00,VWS V13.01,2013-10-05 20:56:00,
2013-10-05 17:01:00,77.0,68.9,29.73,West,277,0.0,1.0,76,0.00,,---,0.00,VWS V13.01,2013-10-05 21:01:00,
2013-10-05 17:06:00,76.9,68.8,29.73,West,276,0.0,4.0,76,0.00,,---,0.00,VWS V13.01,2013-10-05 21:06:00,
2013-10-05 17:11:00,76.8,69.1,29.73,West,276,0.0,4.0,77,0.00,,---,0.00,VWS V13.01,2013-10-05 21:11:00,
2013-10-05 17:16:00,76.6,69.2,29.74,West,271,0.0,9.0,78,0.00,,---,0.00,VWS V13.01,2013-10-05 21:16:00,
2013-10-05 17:21:00,76.0,68.7,29.74,West,267,5.0,11.0,78,0.00,,---,0.00,VWS V13.01,2013-10-05 21:21:00,
2013-10-05 17:26:00,75.6,68.6,29.74,West,261,6.0,12.0,79,0.00,,---,0.00,VWS V13.01,2013-10-05 21:26:00,
2013-10-05 17:31:00,75.3,68.7,29.74,West,261,2.0,6.0,80,0.00,,---,0.00,VWS V13.01,2013-10-05 21:31:00,
2013-10-05 17:37:00,74.9,69.0,29.74,West,261,1.0,7.0,82,0.00,,---,0.00,VWS V13.01,2013-10-05 21:37:00,
2013-10-05 17:42:00,74.7,68.5,29.74,West,261,3.0,7.0,81,0.00,,---,0.00,VWS V13.01,2013-10-05 21:42:00,
2013-10-05 17:47:00,74.5,68.7,29.74,West,261,1.0,7.0,82,0.00,,---,0.00,VWS V13.01,2013-10-05 21:47:00,
2013-10-05 17:52:00,74.4,68.6,29.74,West,261,0.0,7.0,82,0.00,,---,0.00,VWS V13.01,2013-10-05 21:52:00,
2013-10-05 17:57:00,74.0,68.5,29.74,West,261,0.0,7.0,83,0.00,,---,0.00,VWS V13.01,2013-10-05 21:57:00,
2013-10-05 18:02:00,73.6,68.8,29.74,West,261,0.0,1.0,85,0.00,,---,0.00,VWS V13.01,2013-10-05 22:02:00,
2013-10-05 18:08:00,73.1,68.7,29.74,West,262,0.0,1.0,86,0.00,,---,0.00,VWS V13.01,2013-10-05 22:08:00,
2013-10-05 18:13:00,72.7,68.6,29.74,West,262,0.0,1.0,87,0.00,,---,0.00,VWS V13.01,2013-10-05 22:13:00,
2013-10-05 18:18:00,72.4,68.3,29.74,West,261,1.0,2.0,87,0.00,,---,0.00,VWS V13.01,2013-10-05 22:18:00,
2013-10-05 18:23:00,72.1,68.3,29.74,West,262,0.0,2.0,88,0.00,,---,0.00,VWS V13.01,2013-10-05 22:23:00,
2013-10-05 18:28:00,71.7,68.3,29.74,West,262,0.0,2.0,89,0.00,,---,0.00,VWS V13.01,2013-10-05 22:28:00,
2013-10-05 18:33:00,71.3,68.2,29.74,West,261,0.0,2.0,90,0.00,,---,0.00,VWS V13.01,2013-10-05 22:33:00,
2013-10-05 18:38:00,71.0,68.2,29.74,West,262,0.0,2.0,91,0.00,,---,0.00,VWS V13.01,2013-10-05 22:38:00,
2013-10-05 18:43:00,70.7,67.9,29.74,West,262,0.0,2.0,91,0.00,,---,0.00,VWS V13.01,2013-10-05 22:43:00,
2013-10-05 18:48:00,70.1,67.7,29.74,West,262,0.0,2.0,92,0.00,,---,0.00,VWS V13.01,2013-10-05 22:48:00,
2013-10-05 18:53:00,69.7,67.6,29.74,West,262,0.0,2.0,93,0.00,,---,0.00,VWS V13.01,2013-10-05 22:53:00,
2013-10-05 18:58:00,69.4,67.6,29.74,West,262,0.0,2.0,94,0.00,,---,0.00,VWS V13.01,2013-10-05 22:58:00,
2013-10-05 19:03:00,69.3,67.5,29.74,West,262,0.0,0.0,94,0.00,,---,0.00,VWS V13.01,2013-10-05 23:03:00,
2013-10-05 19:08:00,69.1,67.6,29.74,West,262,0.0,0.0,95,0.00,,---,0.00,VWS V13.01,2013-10-05 23:08:00,
2013-10-05 19:13:00,68.9,67.4,29.74,West,261,0.0,0.0,95,0.00,,---,0.00,VWS V13.01,2013-10-05 23:13:00,
2013-10-05 19:19:00,68.7,67.2,29.74,West,261,0.0,0.0,95,0.00,,---,0.00,VWS V13.01,2013-10-05 23:19:00,
2013-10-05 19:24:00,68.6,66.8,29.75,West,261,0.0,1.0,94,0.00,,---,0.00,VWS V13.01,2013-10-05 23:24:00,
2013-10-05 19:29:00,68.5,67.0,29.75,West,261,0.0,1.0,95,0.00,,---,0.00,VWS V13.01,2013-10-05 23:29:00,
2013-10-05 19:34:00,68.3,66.8,29.75,West,262,0.0,0.0,95,0.00,,---,0.00,VWS V13.01,2013-10-05 23:34:00,
2013-10-05 19:39:00,68.2,66.7,29.75,West,262,0.0,0.0,95,0.00,,---,0.00,VWS V13.01,2013-10-05 23:39:00,
2013-10-05 19:44:00,68.1,66.6,29.75,West,262,0.0,0.0,95,0.00,,---,0.00,VWS V13.01,2013-10-05 23:44:00,
2013-10-05 19:49:00,68.0,66.5,29.75,West,261,0.0,0.0,95,0.00,,---,0.00,VWS V13.01,2013-10-05 23:49:00,
2013-10-05 19:54:00,67.9,66.4,29.76,West,261,0.0,0.0,95,0.00,,---,0.00,VWS V13.01,2013-10-05 23:54:00,
2013-10-05 19:59:00,67.7,66.2,29.76,West,262,0.0,0.0,95,0.00,,---,0.00,VWS V13.01,2013-10-05 23:59:00,
2013-10-05 20:04:00,67.4,65.9,29.76,West,262,0.0,0.0,95,0.00,,---,0.00,VWS V13.01,2013-10-06 00:04:00,
2013-10-05 20:09:00,67.3,65.8,29.77,West,262,0.0,0.0,95,0.00,,---,0.00,VWS V13.01,2013-10-06 00:09:00,
2013-10-05 20:15:00,67.2,66.0,29.77,West,261,0.0,1.0,96,0.00,,---,0.00,VWS V13.01,2013-10-06 00:15:00,
2013-10-05 20:20:00,67.2,66.0,29.77,West,262,0.0,1.0,96,0.00,,---,0.00,VWS V13.01,2013-10-06 00:20:00,
2013-10-05 20:25:00,67.0,65.8,29.77,West,262,0.0,1.0,96,0.00,,---,0.00,VWS V13.01,2013-10-06 00:25:00,
2013-10-05 20:30:00,66.9,65.7,29.77,West,262,0.0,0.0,96,0.00,,---,0.00,VWS V13.01,2013-10-06 00:30:00,
2013-10-05 20:35:00,66.8,65.6,29.77,West,262,0.0,0.0,96,0.00,,---,0.00,VWS V13.01,2013-10-06 00:35:00,
2013-10-05 20:40:00,66.8,65.9,29.77,West,262,0.0,0.0,97,0.00,,---,0.00,VWS V13.01,2013-10-06 00:40:00,
2013-10-05 20:45:00,66.8,65.9,29.77,West,262,0.0,0.0,97,0.00,,---,0.00,VWS V13.01,2013-10-06 00:45:00,
2013-10-05 20:50:00,66.7,65.8,29.77,West,262,0.0,0.0,97,0.00,,---,0.00,VWS V13.01,2013-10-06 00:50:00,
2013-10-05 20:55:00,66.7,65.8,29.77,West,261,0.0,0.0,97,0.00,,---,0.00,VWS V13.01,2013-10-06 00:55:00,
2013-10-05 21:00:00,66.7,65.8,29.77,West,261,0.0,2.0,97,0.00,,---,0.00,VWS V13.01,2013-10-06 01:00:00,
2013-10-05 21:06:00,66.7,65.8,29.77,West,262,0.0,2.0,97,0.00,,---,0.00,VWS V13.01,2013-10-06 01:06:00,
2013-10-05 21:11:00,66.5,65.6,29.77,West,262,0.0,2.0,97,0.00,,---,0.00,VWS V13.01,2013-10-06 01:11:00,
2013-10-05 21:16:00,66.3,65.4,29.77,West,262,0.0,2.0,97,0.00,,---,0.00,VWS V13.01,2013-10-06 01:16:00,
2013-10-05 21:21:00,66.5,65.6,29.77,West,261,0.0,2.0,97,0.00,,---,0.00,VWS V13.01,2013-10-06 01:21:00,
2013-10-05 21:26:00,66.5,65.9,29.76,West,261,0.0,2.0,98,0.00,,---,0.00,VWS V13.01,2013-10-06 01:26:00,
2013-10-05 21:31:00,66.6,66.0,29.76,West,262,0.0,0.0,98,0.00,,---,0.00,VWS V13.01,2013-10-06 01:31:00,
2013-10-05 21:36:00,67.0,66.4,29.77,West,262,0.0,0.0,98,0.00,,---,0.00,VWS V13.01,2013-10-06 01:36:00,
2013-10-05 21:41:00,66.9,66.3,29.77,West,262,0.0,0.0,98,0.00,,---,0.00,VWS V13.01,2013-10-06 01:41:00,
2013-10-05 21:46:00,66.9,66.3,29.77,West,262,0.0,0.0,98,0.00,,---,0.00,VWS V13.01,2013-10-06 01:46:00,
2013-10-05 21:52:00,66.8,66.2,29.77,West,261,0.0,0.0,98,0.00,,---,0.00,VWS V13.01,2013-10-06 01:52:00,
2013-10-05 21:57:00,66.7,66.1,29.77,West,261,0.0,0.0,98,0.00,,---,0.00,VWS V13.01,2013-10-06 01:57:00,
2013-10-05 22:02:00,66.5,65.9,29.77,West,261,0.0,0.0,98,0.00,,---,0.00,VWS V13.01,2013-10-06 02:02:00,
2013-10-05 22:07:00,66.4,65.5,29.77,West,262,0.0,0.0,97,0.00,,---,0.00,VWS V13.01,2013-10-06 02:07:00,
2013-10-05 22:12:00,66.3,65.4,29.77,West,262,0.0,0.0,97,0.00,,---,0.00,VWS V13.01,2013-10-06 02:12:00,
2013-10-05 22:17:00,66.3,65.7,29.77,West,262,0.0,0.0,98,0.00,,---,0.00,VWS V13.01,2013-10-06 02:17:00,
2013-10-05 22:22:00,66.3,65.7,29.77,West,261,0.0,0.0,98,0.00,,---,0.00,VWS V13.01,2013-10-06 02:22:00,
2013-10-05 22:27:00,66.3,65.7,29.77,West,262,0.0,0.0,98,0.00,,---,0.00,VWS V13.01,2013-10-06 02:27:00,
2013-10-05 22:32:00,66.1,65.5,29.77,West,262,0.0,0.0,98,0.00,,---,0.00,VWS V13.01,2013-10-06 02:32:00,
2013-10-05 22:37:00,65.9,65.3,29.76,West,261,0.0,0.0,98,0.00,,---,0.00,VWS V13.01,2013-10-06 02:37:00,
2013-10-05 22:42:00,65.4,64.5,29.76,West,261,0.0,1.0,97,0.00,,---,0.00,VWS V13.01,2013-10-06 02:42:00,
2013-10-05 22:48:00,64.9,64.0,29.76,West,262,0.0,1.0,97,0.00,,---,0.00,VWS V13.01,2013-10-06 02:48:00,
2013-10-05 22:53:00,64.8,64.2,29.76,West,262,0.0,1.0,98,0.00,,---,0.00,VWS V13.01,2013-10-06 02:53:00,
2013-10-05 22:58:00,64.7,64.1,29.76,West,262,0.0,1.0,98,0.00,,---,0.00,VWS V13.01,2013-10-06 02:58:00,
2013-10-05 23:03:00,64.8,64.2,29.76,West,262,0.0,0.0,98,0.00,,---,0.00,VWS V13.01,2013-10-06 03:03:00,
2013-10-05 23:08:00,64.9,64.3,29.75,West,261,0.0,0.0,98,0.00,,---,0.00,VWS V13.01,2013-10-06 03:08:00,
2013-10-05 23:13:00,64.7,64.1,29.75,West,262,0.0,0.0,98,0.00,,---,0.00,VWS V13.01,2013-10-06 03:13:00,
2013-10-05 23:18:00,64.6,64.0,29.75,West,261,0.0,0.0,98,0.00,,---,0.00,VWS V13.01,2013-10-06 03:18:00,
2013-10-05 23:23:00,64.4,63.8,29.74,West,262,0.0,0.0,98,0.00,,---,0.00,VWS V13.01,2013-10-06 03:23:00,
2013-10-05 23:29:00,64.2,63.6,29.74,West,261,0.0,0.0,98,0.00,,---,0.00,VWS V13.01,2013-10-06 03:29:00,
2013-10-05 23:34:00,64.0,63.4,29.74,West,262,0.0,0.0,98,0.00,,---,0.00,VWS V13.01,2013-10-06 03:34:00,
2013-10-05 23:39:00,64.0,63.4,29.73,West,262,0.0,0.0,98,0.00,,---,0.00,VWS V13.01,2013-10-06 03:39:00,
2013-10-05 23:44:00,64.3,63.7,29.73,West,262,0.0,0.0,98,0.00,,---,0.00,VWS V13.01,2013-10-06 03:44:00,
2013-10-05 23:50:00,64.4,63.8,29.73,West,262,0.0,0.0,98,0.00,,---,0.00,VWS V13.01,2013-10-06 03:50:00,
2013-10-05 23:55:00,64.4,63.8,29.73,West,262,0.0,1.0,98,0.00,,---,0.00,VWS V13.01,2013-10-06 03:55:00,